星链-6156 (STARLINK-6156 )

导读

STARLINK-6156是美国太空探索技术公司(SpaceX)星链卫星互联网项目的组网卫星,于2023年5月4日发射升空。星链旨在构建全球卫星互联网,该卫星入轨后,参与低轨卫星星座组网,为全球范围内用户提供高速宽带互联网接入服务,助力星链系统服务覆盖完善与能力提升。

基本信息
目录编号:
56374
目录名称:
STARLINK-6156
国际标识:
2023-061A
轨道中心:
EARTH
卫星名称:
星链-6156
卫星全名:
星链-6156 (STARLINK-6156 )
卫星状态:
在轨 (已飞行1137 天)
发射日期:
2023-05-04 UTC
国别 :
美国 (US)
星等 :
--
轨道信息
数据来源 国际轨道数据 AOE轨道数据
星历时间 2026-06-14T04:46:51+0800
1天前
查看轨道信息
2026-06-12T18:00:00+0800
2天前
查看轨道信息
半长轴 6861.188km 6861.195km
偏心率 0.0001248 0.0001133
轨道倾角 43.006° 43.004°
近地点辐角 259.967° 246.981°
升交点赤经 15.168° 23.352°
平近点角 100.104° 54.198°
近地点 482.194km 482.28km
远地点 483.908km 483.836km
周期 94.267分钟 94.267分钟
每日圈数 15.275795 15.275772
详细信息
固有亮度:
5
最大亮度:
2.5
卫星平台:
Starlink v1.5
覆盖范围:
全球
运营商:
太空探索技术公司
运营商所在国:
美国
制造商(研发单位):
太空探索技术公司
制造商所在国:
美国
使用方式:
暂无
卫星简介
星链(Starlink)计划是由太空探索技术公司(SpaceX)提出的一个巨型低轨卫星互联网星座项目,计划在2019年至2024年间在太空搭建由约1.2万颗卫星组成的“星链”网络,其中1584颗将部署在地球上空550千米处的近地轨道,并从2020年开始工作。该卫星仍在工作。
2D轨道图
3D轨道图
轨道高度分析图
轨道倾角分析图
轨道综合分析图
查看轨道综合分析图